Time,TemperatureF,DewpointF,PressureIn,WindDirection,WindDirectionDegrees,WindSpeedMPH,WindSpeedGustMPH,Humidity,HourlyPrecipIn,Conditions,Clouds,dailyrainin,SoftwareType,DateUTC
2013-05-30 00:01:00,72.1,57.2,29.93,West,270,1.8,4.1,59,0.00,,,0.00,WUHU216WMR100,2013-05-30 05:01:00,
2013-05-30 00:06:00,72.1,57.2,29.93,ESE,112,0.0,5.9,59,0.00,,,0.00,WUHU216WMR100,2013-05-30 05:06:00,
2013-05-30 00:11:00,71.8,56.9,29.93,WNW,292,2.6,5.9,59,0.00,,,0.00,WUHU216WMR100,2013-05-30 05:11:00,
2013-05-30 00:16:00,72.0,57.5,29.93,WNW,292,3.3,3.3,60,0.00,,,0.00,WUHU216WMR100,2013-05-30 05:16:00,
2013-05-30 00:21:00,71.8,57.4,29.93,SSE,157,4.1,4.1,60,0.00,,,0.00,WUHU216WMR100,2013-05-30 05:21:00,
2013-05-30 00:26:00,71.8,57.4,29.93,WSW,258,3.0,4.1,60,0.00,,,0.00,WUHU216WMR100,2013-05-30 05:26:00,
2013-05-30 00:31:00,71.6,57.6,29.93,NNW,337,4.1,4.5,61,0.00,,,0.00,WUHU216WMR100,2013-05-30 05:31:00,
2013-05-30 00:36:00,72.0,58.0,29.93,West,270,5.6,6.3,61,0.00,,,0.00,WUHU216WMR100,2013-05-30 05:36:00,
2013-05-30 00:41:00,71.8,57.8,29.93,WSW,241,4.0,6.6,61,0.00,,,0.00,WUHU216WMR100,2013-05-30 05:41:00,
2013-05-30 00:46:00,71.8,58.3,29.93,SSW,202,4.1,6.6,62,0.00,,,0.00,WUHU216WMR100,2013-05-30 05:46:00,
2013-05-30 00:51:00,71.8,58.3,29.93,West,269,4.6,5.1,62,0.00,,,0.00,WUHU216WMR100,2013-05-30 05:51:00,
2013-05-30 00:56:00,71.6,58.1,29.93,WSW,247,4.8,5.1,62,0.00,,,0.00,WUHU216WMR100,2013-05-30 05:56:00,
2013-05-30 01:01:00,71.6,58.5,29.93,WSW,246,2.4,4.8,63,0.00,,,0.00,WUHU216WMR100,2013-05-30 06:01:00,
2013-05-30 01:06:00,71.4,58.8,29.93,WSW,247,2.1,4.8,64,0.00,,,0.00,WUHU216WMR100,2013-05-30 06:06:00,
2013-05-30 01:11:00,71.4,58.8,29.93,West,259,4.2,4.5,64,0.00,,,0.00,WUHU216WMR100,2013-05-30 06:11:00,
2013-05-30 01:16:00,71.2,59.0,29.93,SW,214,3.3,4.8,65,0.00,,,0.00,WUHU216WMR100,2013-05-30 06:16:00,
2013-05-30 01:21:00,71.1,58.9,29.93,WNW,292,1.5,4.8,65,0.00,,,0.00,WUHU216WMR100,2013-05-30 06:21:00,
2013-05-30 01:26:00,71.1,59.4,29.93,WSW,239,2.8,4.8,66,0.00,,,0.00,WUHU216WMR100,2013-05-30 06:26:00,
2013-05-30 01:31:00,70.9,59.2,29.93,WSW,247,3.6,4.8,66,0.00,,,0.00,WUHU216WMR100,2013-05-30 06:31:00,
2013-05-30 01:36:00,70.7,59.4,29.93,SSE,157,2.9,4.5,67,0.00,,,0.00,WUHU216WMR100,2013-05-30 06:36:00,
2013-05-30 01:41:00,70.7,59.4,29.93,South,180,3.3,4.1,67,0.00,,,0.00,WUHU216WMR100,2013-05-30 06:41:00,
2013-05-30 01:46:00,70.5,59.2,29.93,NW,315,1.8,4.1,67,0.00,,,0.00,WUHU216WMR100,2013-05-30 06:46:00,
2013-05-30 01:51:00,70.5,59.6,29.93,NE,38,1.9,3.3,68,0.00,,,0.00,WUHU216WMR100,2013-05-30 06:51:00,
2013-05-30 01:56:00,70.5,59.6,29.93,SW,225,2.6,2.6,68,0.00,,,0.00,WUHU216WMR100,2013-05-30 06:56:00,
2013-05-30 02:01:00,70.5,60.0,29.93,SW,225,3.6,4.5,69,0.00,,,0.00,WUHU216WMR100,2013-05-30 07:01:00,
2013-05-30 02:06:00,70.3,59.8,29.93,WNW,285,2.6,5.9,69,0.00,,,0.00,WUHU216WMR100,2013-05-30 07:06:00,
2013-05-30 02:11:00,70.2,59.7,29.93,WNW,289,2.9,5.9,69,0.00,,,0.00,WUHU216WMR100,2013-05-30 07:11:00,
2013-05-30 02:16:00,70.2,60.1,29.90,SSE,163,4.4,6.3,70,0.00,,,0.00,WUHU216WMR100,2013-05-30 07:16:00,
2013-05-30 02:21:00,70.2,60.1,29.90,ENE,67,5.6,6.3,70,0.00,,,0.00,WUHU216WMR100,2013-05-30 07:21:00,
2013-05-30 02:26:00,70.2,60.1,29.90,SSE,157,1.8,7.1,70,0.00,,,0.00,WUHU216WMR100,2013-05-30 07:26:00,
2013-05-30 02:31:00,70.0,60.3,29.90,WSW,239,3.6,7.1,71,0.00,,,0.00,WUHU216WMR100,2013-05-30 07:31:00,
2013-05-30 02:37:00,69.8,60.1,29.90,SSW,202,4.5,4.5,71,0.00,,,0.00,WUHU216WMR100,2013-05-30 07:37:00,
2013-05-30 02:42:00,69.8,60.5,29.90,West,270,5.6,5.6,72,0.00,,,0.00,WUHU216WMR100,2013-05-30 07:42:00,
2013-05-30 02:47:00,69.6,60.3,29.90,WSW,242,6.0,6.6,72,0.00,,,0.00,WUHU216WMR100,2013-05-30 07:47:00,
2013-05-30 02:52:00,69.4,60.5,29.90,SW,227,3.1,7.1,73,0.00,,,0.00,WUHU216WMR100,2013-05-30 07:52:00,
2013-05-30 02:57:00,69.4,60.5,29.90,SSE,157,7.4,7.4,73,0.00,,,0.00,WUHU216WMR100,2013-05-30 07:57:00,
2013-05-30 03:02:00,69.4,60.9,29.90,WSW,252,4.2,7.4,74,0.00,,,0.00,WUHU216WMR100,2013-05-30 08:02:00,
2013-05-30 03:07:00,69.3,60.8,29.90,SE,139,4.4,7.4,74,0.00,,,0.00,WUHU216WMR100,2013-05-30 08:07:00,
2013-05-30 03:12:00,69.3,60.8,29.90,South,180,3.3,5.9,74,0.00,,,0.00,WUHU216WMR100,2013-05-30 08:12:00,
2013-05-30 03:17:00,69.1,60.6,29.90,East,90,0.0,4.1,74,0.00,,,0.00,WUHU216WMR100,2013-05-30 08:17:00,
2013-05-30 03:22:00,69.1,61.0,29.90,SSW,213,3.1,3.6,75,0.00,,,0.00,WUHU216WMR100,2013-05-30 08:22:00,
2013-05-30 03:27:00,69.1,61.0,29.90,South,176,2.6,4.1,75,0.00,,,0.00,WUHU216WMR100,2013-05-30 08:27:00,
2013-05-30 03:32:00,68.9,61.1,29.90,ESE,112,4.1,4.8,76,0.00,,,0.00,WUHU216WMR100,2013-05-30 08:32:00,
2013-05-30 03:37:00,68.9,61.1,29.90,NW,315,1.8,4.8,76,0.00,,,0.00,WUHU216WMR100,2013-05-30 08:37:00,
2013-05-30 03:42:00,68.9,61.1,29.90,ESE,112,1.5,2.1,76,0.00,,,0.00,WUHU216WMR100,2013-05-30 08:42:00,
2013-05-30 03:47:00,68.9,61.5,29.90,SE,140,3.3,5.1,77,0.00,,,0.00,WUHU216WMR100,2013-05-30 08:47:00,
2013-05-30 03:52:00,68.9,61.5,29.90,SSE,157,4.1,5.1,77,0.00,,,0.00,WUHU216WMR100,2013-05-30 08:52:00,
2013-05-30 03:57:00,69.1,62.1,29.90,SSE,157,8.1,8.1,78,0.00,,,0.00,WUHU216WMR100,2013-05-30 08:57:00,
2013-05-30 04:02:00,69.1,62.1,29.90,SE,137,3.1,8.1,78,0.00,,,0.00,WUHU216WMR100,2013-05-30 09:02:00,
2013-05-30 04:07:00,69.3,62.2,29.90,South,180,2.6,8.1,78,0.00,,,0.00,WUHU216WMR100,2013-05-30 09:07:00,
2013-05-30 04:12:00,69.4,62.3,29.90,East,90,2.1,6.3,78,0.00,,,0.00,WUHU216WMR100,2013-05-30 09:12:00,
2013-05-30 04:17:00,69.4,62.3,29.90,NE,45,0.0,6.3,78,0.00,,,0.00,WUHU216WMR100,2013-05-30 09:17:00,
2013-05-30 04:22:00,69.8,62.7,29.90,SSE,157,6.3,6.3,78,0.00,,,0.00,WUHU216WMR100,2013-05-30 09:22:00,
2013-05-30 04:27:00,70.0,62.9,29.90,SSE,157,3.1,6.3,78,0.00,,,0.00,WUHU216WMR100,2013-05-30 09:27:00,
2013-05-30 04:32:00,70.2,62.8,29.93,ENE,67,0.0,4.1,77,0.00,,,0.00,WUHU216WMR100,2013-05-30 09:32:00,
2013-05-30 04:37:00,70.2,62.8,29.93,SSE,157,0.0,3.6,77,0.00,,,0.00,WUHU216WMR100,2013-05-30 09:37:00,
2013-05-30 04:42:00,70.2,62.8,29.93,South,187,3.1,6.3,77,0.00,,,0.00,WUHU216WMR100,2013-05-30 09:42:00,
2013-05-30 04:47:00,70.2,62.8,29.90,SE,135,5.6,6.3,77,0.00,,,0.00,WUHU216WMR100,2013-05-30 09:47:00,
2013-05-30 04:52:00,70.0,62.6,29.90,SSW,202,2.6,5.6,77,0.00,,,0.00,WUHU216WMR100,2013-05-30 09:52:00,
2013-05-30 04:57:00,69.8,62.4,29.90,SSW,193,3.1,3.6,77,0.00,,,0.00,WUHU216WMR100,2013-05-30 09:57:00,
2013-05-30 05:02:00,69.6,62.2,29.90,ESE,112,0.0,3.3,77,0.00,,,0.00,WUHU216WMR100,2013-05-30 10:02:00,
2013-05-30 05:07:00,69.4,62.3,29.90,ESE,112,0.0,2.1,78,0.00,,,0.00,WUHU216WMR100,2013-05-30 10:07:00,
2013-05-30 05:12:00,69.3,62.2,29.90,East,90,4.8,4.8,78,0.00,,,0.00,WUHU216WMR100,2013-05-30 10:12:00,
2013-05-30 05:17:00,69.4,63.0,29.93,SSE,157,4.5,4.8,80,0.00,,,0.00,WUHU216WMR100,2013-05-30 10:17:00,
2013-05-30 05:22:00,69.4,63.0,29.93,ESE,112,0.0,4.8,80,0.00,,,0.00,WUHU216WMR100,2013-05-30 10:22:00,
2013-05-30 05:27:00,69.4,63.0,29.93,ESE,112,4.8,4.8,80,0.00,,,0.00,WUHU216WMR100,2013-05-30 10:27:00,
2013-05-30 05:32:00,69.6,63.6,29.93,WSW,247,4.1,5.1,81,0.00,,,0.00,WUHU216WMR100,2013-05-30 10:32:00,
2013-05-30 05:37:00,69.6,63.2,29.93,SE,135,2.6,5.1,80,0.00,,,0.00,WUHU216WMR100,2013-05-30 10:37:00,
2013-05-30 05:42:00,69.8,63.4,29.93,SE,135,4.8,5.6,80,0.00,,,0.00,WUHU216WMR100,2013-05-30 10:42:00,
2013-05-30 05:47:00,70.0,63.6,29.93,ESE,112,4.8,6.3,80,0.00,,,0.00,WUHU216WMR100,2013-05-30 10:47:00,
2013-05-30 05:52:00,70.0,63.6,29.93,SSE,157,2.1,6.3,80,0.00,,,0.00,WUHU216WMR100,2013-05-30 10:52:00,
2013-05-30 05:57:00,70.2,63.8,29.93,ESE,112,2.6,6.6,80,0.00,,,0.00,WUHU216WMR100,2013-05-30 10:57:00,
2013-05-30 06:02:00,70.3,63.9,29.93,South,182,2.6,6.6,80,0.00,,,0.00,WUHU216WMR100,2013-05-30 11:02:00,
2013-05-30 06:07:00,70.7,64.0,29.93,SSE,157,5.1,7.1,79,0.00,,,0.00,WUHU216WMR100,2013-05-30 11:07:00,
2013-05-30 06:12:00,71.4,64.3,29.93,SSE,157,5.1,7.1,78,0.00,,,0.00,WUHU216WMR100,2013-05-30 11:12:00,
2013-05-30 06:17:00,71.6,64.1,29.90,SE,135,9.6,9.6,77,0.00,,,0.00,WUHU216WMR100,2013-05-30 11:17:00,
2013-05-30 06:22:00,71.4,63.9,29.90,West,278,2.4,9.6,77,0.00,,,0.00,WUHU216WMR100,2013-05-30 11:22:00,
2013-05-30 06:27:00,71.4,63.9,29.90,SSE,157,4.1,9.6,77,0.00,,,0.00,WUHU216WMR100,2013-05-30 11:27:00,
2013-05-30 06:32:00,71.4,63.9,29.93,South,185,3.3,6.3,77,0.00,,,0.00,WUHU216WMR100,2013-05-30 11:32:00,
2013-05-30 06:37:00,71.4,63.9,29.93,WSW,247,3.3,6.3,77,0.00,,,0.00,WUHU216WMR100,2013-05-30 11:37:00,
2013-05-30 06:42:00,71.4,63.9,29.93,SSE,149,3.5,5.1,77,0.00,,,0.00,WUHU216WMR100,2013-05-30 11:42:00,
2013-05-30 06:47:00,71.6,64.1,29.90,NW,311,4.7,5.6,77,0.00,,,0.00,WUHU216WMR100,2013-05-30 11:47:00,
2013-05-30 06:52:00,71.8,64.3,29.90,ESE,110,3.3,5.6,77,0.00,,,0.00,WUHU216WMR100,2013-05-30 11:52:00,
2013-05-30 06:57:00,72.0,64.5,29.90,SSE,157,4.3,5.9,77,0.00,,,0.00,WUHU216WMR100,2013-05-30 11:57:00,
2013-05-30 07:02:00,72.3,64.4,29.90,SSW,202,4.5,9.9,76,0.00,,,0.00,WUHU216WMR100,2013-05-30 12:02:00,
2013-05-30 07:07:00,73.2,64.9,29.90,South,180,6.3,9.9,75,0.00,,,0.00,WUHU216WMR100,2013-05-30 12:07:00,
2013-05-30 07:12:00,73.8,65.2,29.90,NNE,22,4.8,9.9,74,0.00,,,0.00,WUHU216WMR100,2013-05-30 12:12:00,
2013-05-30 07:17:00,74.3,64.9,29.90,SSW,194,3.7,9.9,72,0.00,,,0.00,WUHU216WMR100,2013-05-30 12:17:00,
2013-05-30 07:22:00,74.8,65.0,29.90,ESE,112,4.2,8.1,71,0.00,,,0.00,WUHU216WMR100,2013-05-30 12:22:00,
2013-05-30 07:27:00,75.0,65.2,29.90,ESE,112,8.1,8.1,71,0.00,,,0.00,WUHU216WMR100,2013-05-30 12:27:00,
2013-05-30 07:32:00,75.6,65.3,29.93,ESE,112,4.5,8.1,70,0.00,,,0.00,WUHU216WMR100,2013-05-30 12:32:00,
2013-05-30 07:37:00,75.9,64.8,29.93,ESE,112,7.1,8.1,68,0.00,,,0.00,WUHU216WMR100,2013-05-30 12:37:00,
2013-05-30 07:42:00,76.3,65.2,29.93,South,180,4.8,9.6,68,0.00,,,0.00,WUHU216WMR100,2013-05-30 12:42:00,
2013-05-30 07:47:00,76.6,65.0,29.90,SW,225,5.9,9.6,67,0.00,,,0.00,WUHU216WMR100,2013-05-30 12:47:00,
2013-05-30 07:52:00,77.4,65.8,29.90,SSW,202,10.4,10.4,67,0.00,,,0.00,WUHU216WMR100,2013-05-30 12:52:00,
2013-05-30 07:57:00,77.7,65.7,29.90,SSW,202,8.1,10.4,66,0.00,,,0.00,WUHU216WMR100,2013-05-30 12:57:00,
2013-05-30 08:02:00,78.3,66.2,29.90,SSE,157,6.3,10.4,66,0.00,,,0.00,WUHU216WMR100,2013-05-30 13:02:00,
2013-05-30 08:07:00,79.0,66.0,29.90,ESE,112,6.3,8.1,64,0.00,,,0.00,WUHU216WMR100,2013-05-30 13:07:00,
2013-05-30 08:12:00,79.5,66.0,29.90,WNW,292,10.7,10.7,63,0.00,,,0.00,WUHU216WMR100,2013-05-30 13:12:00,
2013-05-30 08:17:00,80.2,66.7,29.93,WSW,238,4.3,10.7,63,0.00,,,0.00,WUHU216WMR100,2013-05-30 13:17:00,
2013-05-30 08:22:00,80.8,66.3,29.93,SE,135,7.2,12.9,61,0.00,,,0.00,WUHU216WMR100,2013-05-30 13:22:00,
2013-05-30 08:27:00,81.5,66.5,29.93,SE,127,6.6,12.9,60,0.00,,,0.00,WUHU216WMR100,2013-05-30 13:27:00,
2013-05-30 08:32:00,81.9,66.9,29.93,East,91,6.1,10.4,60,0.00,,,0.00,WUHU216WMR100,2013-05-30 13:32:00,
2013-05-30 08:37:00,82.4,66.4,29.93,SSE,157,9.9,9.9,58,0.00,,,0.00,WUHU216WMR100,2013-05-30 13:37:00,
2013-05-30 08:42:00,83.1,67.5,29.93,SSW,202,4.8,9.9,59,0.00,,,0.00,WUHU216WMR100,2013-05-30 13:42:00,
2013-05-30 08:47:00,83.7,66.6,29.90,South,182,4.4,9.9,56,0.00,,,0.00,WUHU216WMR100,2013-05-30 13:47:00,
2013-05-30 08:52:00,84.4,66.1,29.90,SSE,162,6.5,8.1,54,0.00,,,0.00,WUHU216WMR100,2013-05-30 13:52:00,
2013-05-30 08:57:00,84.6,66.9,29.90,SSW,194,5.1,8.1,55,0.00,,,0.00,WUHU216WMR100,2013-05-30 13:57:00,
2013-05-30 09:02:00,84.7,67.0,29.90,ESE,112,11.2,12.5,55,0.00,,,0.00,WUHU216WMR100,2013-05-30 14:02:00,
2013-05-30 09:07:00,85.3,68.1,29.90,WSW,256,3.8,12.5,56,0.00,,,0.00,WUHU216WMR100,2013-05-30 14:07:00,
2013-05-30 09:12:00,85.8,68.5,29.90,SW,234,4.2,9.9,56,0.00,,,0.00,WUHU216WMR100,2013-05-30 14:12:00,
2013-05-30 09:17:00,86.5,67.5,29.90,SSW,202,6.6,9.6,53,0.00,,,0.00,WUHU216WMR100,2013-05-30 14:17:00,
2013-05-30 09:22:00,86.2,66.1,29.90,SSW,213,6.1,9.6,51,0.00,,,0.00,WUHU216WMR100,2013-05-30 14:22:00,
2013-05-30 09:27:00,86.9,67.3,29.90,West,267,5.9,9.9,52,0.00,,,0.00,WUHU216WMR100,2013-05-30 14:27:00,
2013-05-30 09:32:00,86.7,66.6,29.90,SSW,210,7.2,10.4,51,0.00,,,0.00,WUHU216WMR100,2013-05-30 14:32:00,
2013-05-30 09:37:00,86.9,66.8,29.90,SW,225,7.1,10.4,51,0.00,,,0.00,WUHU216WMR100,2013-05-30 14:37:00,
2013-05-30 09:42:00,87.1,66.4,29.90,South,177,6.4,13.4,50,0.00,,,0.00,WUHU216WMR100,2013-05-30 14:42:00,
2013-05-30 09:47:00,88.3,68.6,29.90,SSW,202,4.5,13.4,52,0.00,,,0.00,WUHU216WMR100,2013-05-30 14:47:00,
2013-05-30 09:52:00,88.5,66.4,29.90,SW,225,8.1,8.1,48,0.00,,,0.00,WUHU216WMR100,2013-05-30 14:52:00,
2013-05-30 09:57:00,88.2,64.2,29.90,SSW,202,5.6,15.8,45,0.00,,,0.00,WUHU216WMR100,2013-05-30 14:57:00,
2013-05-30 10:02:00,88.2,64.2,29.90,SW,229,11.1,15.8,45,0.00,,,0.00,WUHU216WMR100,2013-05-30 15:02:00,
2013-05-30 10:07:00,88.2,64.2,29.90,SW,235,10.6,14.7,45,0.00,,,0.00,WUHU216WMR100,2013-05-30 15:07:00,
2013-05-30 10:12:00,87.1,64.5,29.90,NW,315,6.3,13.4,47,0.00,,,0.00,WUHU216WMR100,2013-05-30 15:12:00,
2013-05-30 10:17:00,87.6,65.6,29.90,SSW,202,4.5,12.9,48,0.00,,,0.00,WUHU216WMR100,2013-05-30 15:17:00,
2013-05-30 10:22:00,87.6,65.6,29.90,SSE,150,9.6,14.4,48,0.00,,,0.00,WUHU216WMR100,2013-05-30 15:22:00,
2013-05-30 10:27:00,87.4,66.0,29.90,ENE,62,6.6,14.4,49,0.00,,,0.00,WUHU216WMR100,2013-05-30 15:27:00,
2013-05-30 10:32:00,87.8,65.8,29.90,WNW,292,9.9,9.9,48,0.00,,,0.00,WUHU216WMR100,2013-05-30 15:32:00,
2013-05-30 10:37:00,87.3,64.7,29.90,East,90,8.9,9.9,47,0.00,,,0.00,WUHU216WMR100,2013-05-30 15:37:00,
2013-05-30 10:42:00,88.2,66.2,29.90,SSW,208,5.8,8.9,48,0.00,,,0.00,WUHU216WMR100,2013-05-30 15:42:00,
2013-05-30 10:47:00,88.5,66.4,29.90,West,270,18.5,18.5,48,0.00,,,0.00,WUHU216WMR100,2013-05-30 15:47:00,
2013-05-30 10:52:00,88.7,66.0,29.90,SSW,200,10.2,18.5,47,0.00,,,0.00,WUHU216WMR100,2013-05-30 15:52:00,
2013-05-30 10:57:00,89.6,66.2,29.90,SSW,205,4.9,18.5,46,0.00,,,0.00,WUHU216WMR100,2013-05-30 15:57:00,
2013-05-30 11:02:00,89.4,66.6,29.90,SSW,202,25.4,25.4,47,0.00,,,0.00,WUHU216WMR100,2013-05-30 16:02:00,
2013-05-30 11:07:00,88.2,65.5,29.90,West,270,12.9,25.4,47,0.00,,,0.00,WUHU216WMR100,2013-05-30 16:07:00,
2013-05-30 11:12:00,88.2,66.2,29.90,NW,315,4.8,25.4,48,0.00,,,0.00,WUHU216WMR100,2013-05-30 16:12:00,
2013-05-30 11:18:00,88.2,64.9,29.90,WNW,292,7.8,17.0,46,0.00,,,0.00,WUHU216WMR100,2013-05-30 16:18:00,
2013-05-30 11:22:00,88.5,66.4,29.90,SSE,164,6.0,10.4,48,0.00,,,0.00,WUHU216WMR100,2013-05-30 16:22:00,
2013-05-30 11:28:00,89.4,66.0,29.90,SSW,202,13.4,13.4,46,0.00,,,0.00,WUHU216WMR100,2013-05-30 16:28:00,
2013-05-30 11:32:00,89.1,65.1,29.90,ENE,67,13.4,13.4,45,0.00,,,0.00,WUHU216WMR100,2013-05-30 16:32:00,
2013-05-30 11:38:00,89.6,64.2,29.90,SSW,201,9.8,16.2,43,0.00,,,0.00,WUHU216WMR100,2013-05-30 16:38:00,
2013-05-30 11:43:00,89.1,65.1,29.90,SSW,202,14.4,16.2,45,0.00,,,0.00,WUHU216WMR100,2013-05-30 16:43:00,
2013-05-30 11:48:00,89.8,65.0,29.90,SW,220,12.3,16.2,44,0.00,,,0.00,WUHU216WMR100,2013-05-30 16:48:00,
2013-05-30 11:53:00,89.4,64.7,29.90,WSW,247,9.6,16.2,44,0.00,,,0.00,WUHU216WMR100,2013-05-30 16:53:00,
2013-05-30 11:58:00,89.6,66.2,29.90,SW,233,5.1,9.6,46,0.00,,,0.00,WUHU216WMR100,2013-05-30 16:58:00,
2013-05-30 12:03:00,89.2,64.5,29.90,ESE,112,13.4,13.4,44,0.00,,,0.00,WUHU216WMR100,2013-05-30 17:03:00,
2013-05-30 12:08:00,87.3,63.4,29.90,NNE,25,5.6,17.0,45,0.00,,,0.00,WUHU216WMR100,2013-05-30 17:08:00,
2013-05-30 12:13:00,85.8,63.3,29.90,SSW,212,6.6,17.0,47,0.00,,,0.00,WUHU216WMR100,2013-05-30 17:13:00,
2013-05-30 12:18:00,85.6,63.8,29.90,SSW,202,5.6,9.6,48,0.00,,,0.00,WUHU216WMR100,2013-05-30 17:18:00,
2013-05-30 12:23:00,87.4,66.0,29.90,SE,135,12.5,12.5,49,0.00,,,0.00,WUHU216WMR100,2013-05-30 17:23:00,
2013-05-30 12:28:00,88.2,66.8,29.90,ESE,112,4.8,12.5,49,0.00,,,0.00,WUHU216WMR100,2013-05-30 17:28:00,
2013-05-30 12:33:00,87.6,65.6,29.90,SSE,157,9.6,12.5,48,0.00,,,0.00,WUHU216WMR100,2013-05-30 17:33:00,
2013-05-30 12:38:00,86.5,65.2,29.90,WSW,247,12.5,12.9,49,0.00,,,0.00,WUHU216WMR100,2013-05-30 17:38:00,
2013-05-30 12:43:00,87.6,66.2,29.90,WNW,292,4.1,12.9,49,0.00,,,0.00,WUHU216WMR100,2013-05-30 17:43:00,
2013-05-30 12:48:00,88.9,66.2,29.90,SSE,158,10.7,15.5,47,0.00,,,0.00,WUHU216WMR100,2013-05-30 17:48:00,
2013-05-30 12:53:00,88.3,63.7,29.90,West,259,6.9,15.5,44,0.00,,,0.00,WUHU216WMR100,2013-05-30 17:53:00,
2013-05-30 12:58:00,87.6,63.0,29.90,SSW,210,4.9,14.0,44,0.00,,,0.00,WUHU216WMR100,2013-05-30 17:58:00,
2013-05-30 13:03:00,88.5,64.5,29.90,West,270,4.8,14.0,45,0.00,,,0.00,WUHU216WMR100,2013-05-30 18:03:00,
2013-05-30 13:08:00,88.0,63.4,29.90,SSW,213,7.9,14.0,44,0.00,,,0.00,WUHU216WMR100,2013-05-30 18:08:00,
2013-05-30 13:13:00,87.8,62.5,29.90,NW,314,6.1,12.5,43,0.00,,,0.00,WUHU216WMR100,2013-05-30 18:13:00,
2013-05-30 13:18:00,87.6,63.0,29.90,SSW,202,5.6,14.7,44,0.00,,,0.00,WUHU216WMR100,2013-05-30 18:18:00,
2013-05-30 13:23:00,88.2,64.2,29.90,NNW,338,5.8,14.7,45,0.00,,,0.00,WUHU216WMR100,2013-05-30 18:23:00,
2013-05-30 13:28:00,88.9,64.2,29.90,South,169,5.9,13.4,44,0.00,,,0.00,WUHU216WMR100,2013-05-30 18:28:00,
2013-05-30 13:33:00,88.9,63.5,29.90,WSW,239,6.6,13.4,43,0.00,,,0.00,WUHU216WMR100,2013-05-30 18:33:00,
2013-05-30 13:38:00,88.2,62.9,29.90,NW,312,4.3,9.6,43,0.00,,,0.00,WUHU216WMR100,2013-05-30 18:38:00,
2013-05-30 13:43:00,87.4,62.9,29.90,SW,225,9.6,10.7,44,0.00,,,0.00,WUHU216WMR100,2013-05-30 18:43:00,
2013-05-30 13:48:00,88.2,62.9,29.90,SW,220,4.3,10.7,43,0.00,,,0.00,WUHU216WMR100,2013-05-30 18:48:00,
2013-05-30 13:53:00,90.7,67.2,29.90,West,279,5.1,12.2,46,0.00,,,0.00,WUHU216WMR100,2013-05-30 18:53:00,
2013-05-30 13:58:00,91.4,63.7,29.90,SW,225,12.9,12.9,40,0.00,,,0.00,WUHU216WMR100,2013-05-30 18:58:00,
2013-05-30 14:03:00,91.8,64.0,29.87,WNW,292,10.4,12.9,40,0.00,,,0.00,WUHU216WMR100,2013-05-30 19:03:00,
2013-05-30 14:08:00,90.7,63.0,29.87,NW,325,4.5,14.7,40,0.00,,,0.00,WUHU216WMR100,2013-05-30 19:08:00,
2013-05-30 14:13:00,88.9,62.1,29.87,NW,304,7.5,14.7,41,0.00,,,0.00,WUHU216WMR100,2013-05-30 19:13:00,
2013-05-30 14:18:00,89.2,63.8,29.87,ESE,112,5.1,9.6,43,0.00,,,0.00,WUHU216WMR100,2013-05-30 19:18:00,
2013-05-30 14:23:00,91.0,64.0,29.87,NE,45,6.3,10.7,41,0.00,,,0.00,WUHU216WMR100,2013-05-30 19:23:00,
2013-05-30 14:28:00,89.1,61.6,29.87,SE,135,6.3,10.7,40,0.00,,,0.00,WUHU216WMR100,2013-05-30 19:28:00,
2013-05-30 14:33:00,87.1,61.9,29.87,WSW,258,5.1,10.7,43,0.00,,,0.00,WUHU216WMR100,2013-05-30 19:33:00,
2013-05-30 14:38:00,85.6,61.2,29.87,SSE,157,7.8,13.4,44,0.00,,,0.00,WUHU216WMR100,2013-05-30 19:38:00,
2013-05-30 14:43:00,86.7,63.5,29.87,WNW,298,3.3,13.4,46,0.00,,,0.00,WUHU216WMR100,2013-05-30 19:43:00,
2013-05-30 14:48:00,87.1,63.9,29.87,SSE,152,3.0,9.9,46,0.00,,,0.00,WUHU216WMR100,2013-05-30 19:48:00,
2013-05-30 14:53:00,86.4,63.3,29.87,SW,225,4.8,10.7,46,0.00,,,0.00,WUHU216WMR100,2013-05-30 19:53:00,
2013-05-30 14:58:00,84.9,62.5,29.87,SE,124,4.9,10.7,47,0.00,,,0.00,WUHU216WMR100,2013-05-30 19:58:00,
2013-05-30 15:03:00,84.6,62.2,29.87,SSW,209,6.8,10.7,47,0.00,,,0.00,WUHU216WMR100,2013-05-30 20:03:00,
2013-05-30 15:08:00,85.6,65.0,29.87,SSW,198,6.8,10.7,50,0.00,,,0.00,WUHU216WMR100,2013-05-30 20:08:00,
2013-05-30 15:13:00,86.0,63.5,29.87,South,180,7.1,9.9,47,0.00,,,0.00,WUHU216WMR100,2013-05-30 20:13:00,
2013-05-30 15:18:00,87.3,63.4,29.87,NW,315,5.9,9.9,45,0.00,,,0.00,WUHU216WMR100,2013-05-30 20:18:00,
2013-05-30 15:23:00,87.6,63.0,29.87,WNW,292,6.6,7.1,44,0.00,,,0.00,WUHU216WMR100,2013-05-30 20:23:00,
2013-05-30 15:28:00,86.4,61.3,29.87,South,184,5.5,10.7,43,0.00,,,0.00,WUHU216WMR100,2013-05-30 20:28:00,
2013-05-30 15:33:00,85.8,62.1,29.84,NNW,345,2.0,10.7,45,0.00,,,0.00,WUHU216WMR100,2013-05-30 20:33:00,
2013-05-30 15:38:00,84.6,61.6,29.84,WSW,247,8.1,8.1,46,0.00,,,0.00,WUHU216WMR100,2013-05-30 20:38:00,
2013-05-30 15:43:00,83.1,67.5,29.84,ESE,113,11.3,14.0,59,0.04,,,0.04,WUHU216WMR100,2013-05-30 20:43:00,
2013-05-30 15:48:00,78.3,66.7,29.84,SSE,151,3.8,14.0,67,0.12,,,0.12,WUHU216WMR100,2013-05-30 20:48:00,
2013-05-30 15:53:00,78.6,68.2,29.84,SSW,202,1.8,7.1,70,0.12,,,0.12,WUHU216WMR100,2013-05-30 20:53:00,
2013-05-30 15:58:00,80.1,71.3,29.84,ESE,115,3.1,4.8,74,0.12,,,0.12,WUHU216WMR100,2013-05-30 20:58:00,
2013-05-30 16:03:00,81.5,71.4,29.84,SSE,157,5.9,5.9,71,0.12,,,0.12,WUHU216WMR100,2013-05-30 21:03:00,
2013-05-30 16:08:00,80.8,70.3,29.84,SSE,157,8.1,8.1,70,0.12,,,0.12,WUHU216WMR100,2013-05-30 21:08:00,
2013-05-30 16:13:00,80.8,70.3,29.84,South,177,4.2,8.1,70,0.12,,,0.12,WUHU216WMR100,2013-05-30 21:13:00,
2013-05-30 16:18:00,81.3,70.4,29.84,NW,315,4.1,5.6,69,0.12,,,0.12,WUHU216WMR100,2013-05-30 21:18:00,
2013-05-30 16:23:00,82.0,71.1,29.84,SW,225,4.5,5.9,69,0.12,,,0.12,WUHU216WMR100,2013-05-30 21:23:00,
2013-05-30 16:28:00,82.6,69.9,29.84,WSW,247,5.1,7.8,65,0.12,,,0.12,WUHU216WMR100,2013-05-30 21:28:00,
2013-05-30 16:33:00,84.2,68.1,29.82,SSW,202,5.1,7.8,58,0.12,,,0.12,WUHU216WMR100,2013-05-30 21:33:00,
2013-05-30 16:38:00,84.9,68.2,29.82,SSW,193,5.2,9.2,57,0.12,,,0.12,WUHU216WMR100,2013-05-30 21:38:00,
2013-05-30 16:43:00,84.7,67.5,29.82,NE,39,3.4,9.2,56,0.08,,,0.12,WUHU216WMR100,2013-05-30 21:43:00,
2013-05-30 16:48:00,85.5,68.2,29.82,SW,225,5.1,5.1,56,0.00,,,0.12,WUHU216WMR100,2013-05-30 21:48:00,
2013-05-30 16:53:00,83.8,64.5,29.82,NE,51,8.8,15.8,52,0.00,,,0.12,WUHU216WMR100,2013-05-30 21:53:00,
2013-05-30 16:58:00,83.5,65.3,29.82,ESE,112,4.8,15.8,54,0.00,,,0.12,WUHU216WMR100,2013-05-30 21:58:00,
2013-05-30 17:03:00,84.9,65.5,29.82,SSE,157,7.1,11.9,52,0.00,,,0.12,WUHU216WMR100,2013-05-30 22:03:00,
2013-05-30 17:08:00,85.5,66.0,29.82,SSW,202,6.3,9.6,52,0.00,,,0.12,WUHU216WMR100,2013-05-30 22:08:00,
2013-05-30 17:13:00,84.6,64.6,29.82,SW,215,5.6,9.6,51,0.00,,,0.12,WUHU216WMR100,2013-05-30 22:13:00,
2013-05-30 17:18:00,83.3,64.0,29.82,South,180,10.4,10.4,52,0.00,,,0.12,WUHU216WMR100,2013-05-30 22:18:00,
2013-05-30 17:23:00,82.6,63.9,29.82,WNW,292,6.6,10.4,53,0.00,,,0.12,WUHU216WMR100,2013-05-30 22:23:00,
2013-05-30 17:28:00,82.4,63.7,29.82,SSW,202,4.5,7.1,53,0.00,,,0.12,WUHU216WMR100,2013-05-30 22:28:00,
2013-05-30 17:33:00,82.0,63.4,29.82,SW,225,12.2,16.2,53,0.00,,,0.12,WUHU216WMR100,2013-05-30 22:33:00,
2013-05-30 17:38:00,81.9,63.3,29.82,SSW,202,9.2,16.2,53,0.00,,,0.12,WUHU216WMR100,2013-05-30 22:38:00,
2013-05-30 17:43:00,81.7,63.6,29.82,South,177,7.3,16.7,54,0.00,,,0.12,WUHU216WMR100,2013-05-30 22:43:00,
2013-05-30 17:48:00,81.5,64.0,29.82,West,267,5.2,16.7,55,0.00,,,0.12,WUHU216WMR100,2013-05-30 22:48:00,
2013-05-30 17:53:00,81.3,64.8,29.82,South,180,4.5,8.1,57,0.00,,,0.12,WUHU216WMR100,2013-05-30 22:53:00,
2013-05-30 17:58:00,81.3,65.3,29.82,SW,233,3.1,8.1,58,0.00,,,0.12,WUHU216WMR100,2013-05-30 22:58:00,
2013-05-30 18:03:00,81.9,65.9,29.82,SSE,157,6.3,9.2,58,0.00,,,0.12,WUHU216WMR100,2013-05-30 23:03:00,
2013-05-30 18:08:00,81.9,65.4,29.82,West,275,4.6,10.4,57,0.00,,,0.12,WUHU216WMR100,2013-05-30 23:08:00,
2013-05-30 18:13:00,81.9,64.9,29.82,SSW,202,8.9,10.4,56,0.00,,,0.12,WUHU216WMR100,2013-05-30 23:13:00,
2013-05-30 18:18:00,81.5,65.0,29.82,ESE,112,4.8,8.9,57,0.00,,,0.12,WUHU216WMR100,2013-05-30 23:18:00,
2013-05-30 18:23:00,81.1,65.2,29.82,SSE,148,5.2,10.4,58,0.00,,,0.12,WUHU216WMR100,2013-05-30 23:23:00,
2013-05-30 18:28:00,81.0,65.1,29.82,ENE,76,4.0,10.4,58,0.00,,,0.12,WUHU216WMR100,2013-05-30 23:28:00,
2013-05-30 18:33:00,81.0,66.0,29.82,East,90,5.9,7.1,60,0.00,,,0.12,WUHU216WMR100,2013-05-30 23:33:00,
2013-05-30 18:38:00,81.1,65.2,29.82,SE,141,7.0,10.7,58,0.00,,,0.12,WUHU216WMR100,2013-05-30 23:38:00,
2013-05-30 18:43:00,81.3,65.8,29.82,West,270,0.0,13.4,59,0.00,,,0.12,WUHU216WMR100,2013-05-30 23:43:00,
2013-05-30 18:48:00,81.9,66.4,29.82,NNW,328,4.0,13.4,59,0.00,,,0.12,WUHU216WMR100,2013-05-30 23:48:00,
2013-05-30 18:53:00,81.7,65.7,29.82,WNW,292,4.1,8.1,58,0.00,,,0.12,WUHU216WMR100,2013-05-30 23:53:00,
2013-05-30 18:58:00,81.5,65.5,29.82,SE,135,3.9,6.6,58,0.00,,,0.12,WUHU216WMR100,2013-05-30 23:58:00,
2013-05-30 19:03:00,80.8,64.9,29.82,WNW,284,6.9,8.1,58,0.00,,,0.12,WUHU216WMR100,2013-05-31 00:03:00,
2013-05-30 19:08:00,80.6,64.2,29.82,SSW,207,2.2,9.6,57,0.00,,,0.12,WUHU216WMR100,2013-05-31 00:08:00,
2013-05-30 19:13:00,80.6,64.7,29.82,SSE,157,5.8,10.4,58,0.00,,,0.12,WUHU216WMR100,2013-05-31 00:13:00,
2013-05-30 19:18:00,80.1,65.2,29.82,WNW,292,4.8,10.4,60,0.00,,,0.12,WUHU216WMR100,2013-05-31 00:18:00,
2013-05-30 19:23:00,79.7,64.8,29.82,South,180,8.1,8.1,60,0.00,,,0.12,WUHU216WMR100,2013-05-31 00:23:00,
2013-05-30 19:28:00,79.2,64.3,29.82,SE,128,5.2,9.9,60,0.00,,,0.12,WUHU216WMR100,2013-05-31 00:28:00,
2013-05-30 19:33:00,78.6,64.3,29.82,ESE,112,1.5,9.9,61,0.00,,,0.12,WUHU216WMR100,2013-05-31 00:33:00,
2013-05-30 19:38:00,78.3,64.4,29.82,SSW,204,3.5,6.3,62,0.00,,,0.12,WUHU216WMR100,2013-05-31 00:38:00,
2013-05-30 19:43:00,78.1,64.7,29.82,SSE,157,6.3,6.3,63,0.00,,,0.12,WUHU216WMR100,2013-05-31 00:43:00,
2013-05-30 19:48:00,78.1,65.2,29.82,SSE,157,7.8,7.8,64,0.00,,,0.12,WUHU216WMR100,2013-05-31 00:48:00,
2013-05-30 19:53:00,77.9,65.0,29.82,South,180,5.9,7.8,64,0.00,,,0.12,WUHU216WMR100,2013-05-31 00:53:00,
2013-05-30 19:58:00,77.5,64.6,29.82,NE,52,3.6,7.1,64,0.00,,,0.12,WUHU216WMR100,2013-05-31 00:58:00,
2013-05-30 20:03:00,77.4,64.5,29.82,East,101,2.9,7.1,64,0.00,,,0.12,WUHU216WMR100,2013-05-31 01:03:00,
2013-05-30 20:08:00,77.2,64.3,29.82,ESE,116,3.8,6.3,64,0.00,,,0.12,WUHU216WMR100,2013-05-31 01:08:00,
2013-05-30 20:13:00,77.0,64.6,29.82,SE,125,4.5,6.3,65,0.00,,,0.12,WUHU216WMR100,2013-05-31 01:13:00,
2013-05-30 20:18:00,76.8,64.4,29.82,SSW,202,5.6,9.9,65,0.00,,,0.12,WUHU216WMR100,2013-05-31 01:18:00,
2013-05-30 20:23:00,76.6,64.6,29.82,WSW,247,7.8,9.9,66,0.00,,,0.12,WUHU216WMR100,2013-05-31 01:23:00,
2013-05-30 20:28:00,76.5,64.5,29.82,South,169,4.7,7.8,66,0.00,,,0.12,WUHU216WMR100,2013-05-31 01:28:00,
2013-05-30 20:33:00,76.3,64.8,29.84,SSW,206,3.6,7.8,67,0.00,,,0.12,WUHU216WMR100,2013-05-31 01:33:00,
2013-05-30 20:38:00,75.9,64.4,29.84,SSE,157,1.9,8.1,67,0.00,,,0.12,WUHU216WMR100,2013-05-31 01:38:00,
2013-05-30 20:43:00,75.9,64.8,29.84,WSW,257,3.9,8.1,68,0.00,,,0.12,WUHU216WMR100,2013-05-31 01:43:00,
2013-05-30 20:48:00,75.9,65.2,29.84,SSW,195,5.4,7.1,69,0.00,,,0.12,WUHU216WMR100,2013-05-31 01:48:00,
2013-05-30 20:53:00,75.6,65.3,29.84,SSE,162,3.9,7.1,70,0.00,,,0.12,WUHU216WMR100,2013-05-31 01:53:00,
2013-05-30 20:58:00,75.6,65.3,29.84,SSE,157,4.8,5.9,70,0.00,,,0.12,WUHU216WMR100,2013-05-31 01:58:00,
2013-05-30 21:03:00,75.6,65.7,29.84,SSE,157,9.2,9.2,71,0.00,,,0.12,WUHU216WMR100,2013-05-31 02:03:00,
2013-05-30 21:08:00,75.4,65.9,29.84,SSW,202,5.6,9.2,72,0.00,,,0.12,WUHU216WMR100,2013-05-31 02:08:00,
2013-05-30 21:13:00,75.2,65.7,29.84,West,270,10.4,10.4,72,0.00,,,0.12,WUHU216WMR100,2013-05-31 02:13:00,
2013-05-30 21:18:00,75.6,66.5,29.84,South,187,5.7,10.4,73,0.00,,,0.12,WUHU216WMR100,2013-05-31 02:18:00,
2013-05-30 21:23:00,75.4,66.3,29.84,ESE,112,6.3,10.4,73,0.00,,,0.12,WUHU216WMR100,2013-05-31 02:23:00,
2013-05-30 21:28:00,75.6,66.5,29.84,ESE,116,5.0,6.3,73,0.00,,,0.12,WUHU216WMR100,2013-05-31 02:28:00,
2013-05-30 21:33:00,75.6,66.5,29.84,SW,216,4.6,6.6,73,0.00,,,0.12,WUHU216WMR100,2013-05-31 02:33:00,
2013-05-30 21:38:00,75.4,65.9,29.84,SSW,202,3.3,6.6,72,0.00,,,0.12,WUHU216WMR100,2013-05-31 02:38:00,
2013-05-30 21:43:00,75.2,65.7,29.84,North,0,4.5,4.8,72,0.00,,,0.12,WUHU216WMR100,2013-05-31 02:43:00,
2013-05-30 21:48:00,75.4,66.3,29.84,ENE,67,4.1,5.9,73,0.00,,,0.12,WUHU216WMR100,2013-05-31 02:48:00,
2013-05-30 21:53:00,75.4,66.3,29.84,WSW,247,4.5,5.9,73,0.00,,,0.12,WUHU216WMR100,2013-05-31 02:53:00,
2013-05-30 21:58:00,75.4,66.7,29.84,SE,132,5.2,5.9,74,0.00,,,0.12,WUHU216WMR100,2013-05-31 02:58:00,
2013-05-30 22:03:00,75.6,66.5,29.84,SW,230,3.0,8.9,73,0.00,,,0.12,WUHU216WMR100,2013-05-31 03:03:00,
2013-05-30 22:08:00,75.6,66.5,29.84,SW,221,4.0,8.9,73,0.00,,,0.12,WUHU216WMR100,2013-05-31 03:08:00,
2013-05-30 22:13:00,75.7,66.2,29.84,SW,236,4.7,8.9,72,0.00,,,0.12,WUHU216WMR100,2013-05-31 03:13:00,
2013-05-30 22:18:00,75.7,66.2,29.84,SSW,197,6.7,9.2,72,0.00,,,0.12,WUHU216WMR100,2013-05-31 03:18:00,
2013-05-30 22:23:00,75.7,65.8,29.84,South,178,8.5,11.9,71,0.00,,,0.12,WUHU216WMR100,2013-05-31 03:23:00,
2013-05-30 22:28:00,75.6,65.7,29.84,WSW,245,5.4,11.9,71,0.00,,,0.12,WUHU216WMR100,2013-05-31 03:28:00,
2013-05-30 22:33:00,75.6,65.7,29.84,SE,134,4.4,7.4,71,0.00,,,0.12,WUHU216WMR100,2013-05-31 03:33:00,
2013-05-30 22:38:00,75.6,65.7,29.84,WNW,282,8.9,12.9,71,0.00,,,0.12,WUHU216WMR100,2013-05-31 03:38:00,
2013-05-30 22:43:00,75.6,65.7,29.84,WNW,292,7.8,12.9,71,0.00,,,0.12,WUHU216WMR100,2013-05-31 03:43:00,
2013-05-30 22:48:00,75.7,65.8,29.87,SE,135,7.8,8.1,71,0.00,,,0.12,WUHU216WMR100,2013-05-31 03:48:00,
2013-05-30 22:53:00,75.7,65.8,29.87,SSE,157,3.7,8.1,71,0.00,,,0.12,WUHU216WMR100,2013-05-31 03:53:00,
2013-05-30 22:58:00,75.7,65.8,29.87,South,185,3.3,5.9,71,0.00,,,0.12,WUHU216WMR100,2013-05-31 03:58:00,
2013-05-30 23:01:00,75.7,65.8,29.87,SSE,157,7.1,7.1,71,0.00,,,0.12,WUHU216WMR100,2013-05-31 04:01:00,
2013-05-30 23:06:00,75.6,65.7,29.87,SSE,157,9.2,13.4,71,0.00,,,0.12,WUHU216WMR100,2013-05-31 04:06:00,
2013-05-30 23:11:00,75.6,65.7,29.87,WSW,247,2.6,13.4,71,0.00,,,0.12,WUHU216WMR100,2013-05-31 04:11:00,
2013-05-30 23:16:00,75.6,66.1,29.87,SE,135,10.4,10.4,72,0.00,,,0.12,WUHU216WMR100,2013-05-31 04:16:00,
2013-05-30 23:21:00,75.2,62.8,29.87,SW,235,12.2,23.9,65,0.00,,,0.12,WUHU216WMR100,2013-05-31 04:21:00,
2013-05-30 23:26:00,73.0,60.7,29.87,WSW,247,20.6,23.9,65,0.00,,,0.12,WUHU216WMR100,2013-05-31 04:26:00,
2013-05-30 23:31:00,71.2,60.7,29.90,WNW,282,9.4,20.6,69,0.00,,,0.12,WUHU216WMR100,2013-05-31 04:31:00,
2013-05-30 23:36:00,70.3,60.2,29.90,WSW,247,9.2,11.9,70,0.00,,,0.12,WUHU216WMR100,2013-05-31 04:36:00,
2013-05-30 23:41:00,69.4,60.1,29.90,SW,217,4.1,9.2,72,0.00,,,0.12,WUHU216WMR100,2013-05-31 04:41:00,
2013-05-30 23:46:00,68.7,60.6,29.90,WSW,247,5.3,9.2,75,0.00,,,0.12,WUHU216WMR100,2013-05-31 04:46:00,
2013-05-30 23:51:00,68.4,61.0,29.90,WSW,247,8.9,10.7,77,0.00,,,0.12,WUHU216WMR100,2013-05-31 04:51:00,
2013-05-30 23:56:00,67.8,61.1,29.90,WNW,292,6.6,10.7,79,0.00,,,0.12,WUHU216WMR100,2013-05-31 04:56:00,